Location: Newark
(3.8581°S, 32.4250°W)
Time: 00:12:50
(UTC+00:00)

OTV 5 (USA 277) - Visible Passes

Search period start: 19 September 2019 00:00
Search period end: 29 September 2019 00:00
Orbit: 295 x 339 km, 54.5° (Epoch: 08 September)

Date Brightness Start Highest point End Pass type
(mag) Time Alt. Az. Time Alt. Az. Time Alt. Az.
20 Sep ? 21:25:12 10° NW 21:26:41 29° WNW 21:26:41 29° WNW visible
21 Sep ? 21:41:46 10° WSW 21:42:11 10° SW 21:42:27 10° SW visible
23 Sep ? 20:35:00 10° WNW 20:37:02 21° WSW 20:39:05 10° S visible
25 Sep ? 06:34:17 12° SSE 06:35:58 18° ESE 06:38:00 10° ENE visible
26 Sep ? 06:50:11 70° SW 06:50:27 86° WNW 06:53:17 10° NNE visible
27 Sep ? 07:05:59 14° NNW 07:05:59 14° NNW 07:06:49 10° NNW visible
